HST
1 20580U 90037B   24126.83110402  .00006251  00000-0  29735-3 0  9991
2 20580  28.4684 268.7897 0001997 303.4036  56.6365 15.17108773670599
ISS (ZARYA)
1 25544U 98067A   24127.20033841  .00016348  00000-0  28427-3 0  9995
2 25544  51.6386 163.5747 0003554 138.0407 298.5821 15.50938879452038
CXO
1 25867U 99040B   24128.19632862  .00000638  00000-0  00000+0 0  9990
2 25867  40.2552 157.8199 8932055 293.5091   0.0392  0.37812619 25568